"Pseudo-MPEC" for P20IoLu

Created 2018 Jul 15 11:18:32 UT using Find_Orb

Click here for an explanation of pseudo-MPECs

 
 Astrometry: 
     P20IoLu  C2018 07 11a[AstrometryG0$Ab0nkN9aSuylxIeo0h-.91JtX4l6UTF$yR8#,F52
     P20IoLu  C2018 07 11kRHEE!H0pYRWAkhk?165@\m?xEXU+#.T-UKq%*I]KoK=4Lw2@y9QF52
     P20IoLu  C2018 07 11%Ka1OI?QVtMS,P62EO4B4^l.7rGiRM*=S\-cVdj/J@\feT8khv^PF52
     P20IoLu  C2018 07 1140QW$aYZ:;B#K,G5Vredacted;g5m-+2aC$)s3-eCC%$srFPC,wXF52
     P20IoLu KC2018 07 13eG/r,v4)=#pQdPp)s9bPq\Hq2E#0$tO%]!2Y5o3-r)87Z.t-!\]MJ04
     P20IoLu KC2018 07 13_D++ocvDh3yTm5$vPd4gxva+wxCJp(I!3KJP!HshH'[7+3\GI$CeJ04
     P20IoLu KC2018 07 13ctc,E3iH5VM9-Nb0-RG9n4uN[x,X=oRZseeVQnES]!vb.^h%HPWIJ04
     P20IoLu KC2018 07 14i%]Srp_PhT]Hdh/ByeHPMW4p\7Fm`irDaK10Gy^H]lH1KH_\\/MUH21
     P20IoLu KC2018 07 14e4x]X_bNprOpjgrMn6tp._AVDWm-O@b:T`wfy_op1x@Vf8]ZN1*7H21
     P20IoLu KC2018 07 14qLmo)`#Y[?M5KVYd%)P#I,i;i#jU.'L4NAqiDPJ$9x)oWmtNEOCPH21

Station data:
(F52) Pan-STARRS 2, Haleakala  (N20.707384 W156.255910)  US/Hawaii.
(H21) Astronomical Research Observatory, Westfield  (N39.483057 W87.968270)
   US/Illinois. 0.76-m f/3.0 astrograph + CCD.
(J04) ESA Optical Ground Station, Tenerife  (N28.300924 W16.511830)  Canary
   Islands (Spain).  Observer D. Abreu. Measurers M. Micheli, D. Koschny, E.
   Schwab, M. Busch, A. Knöfel. 1.0-m f/4.4 reflector + CCD.

Orbital elements:  P20IoLu
   Perihelion 2017 Mar 12.713836 +/- 321 TT = 17:07:55 (JD 2457825.213836)
Epoch 2018 Jul 14.0 TT = JDT 2458313.5                        AutoNEOCP
M 107.65266 +/- 80                  (J2000 ecliptic)
n   0.22047044 +/- 0.0401           Peri.  305.68491 +/- 70
a   2.71374558 +/- 0.329            Node   297.75462 +/- 2.1
e   0.0724421 +/- 0.037             Incl.   26.24948 +/- 0.51
P   4.47                   H 15.3   G  0.15   U 10.6  
q 2.51715608 +/- 0.229    Q 2.91033508 +/- 0.498
From 10 observations 2018 July 11-14; mean residual 0".32
Residuals in arcseconds: 
180711 F52  .13-  .00     180713 J04  .37+  .42+    180714 H21  .23+  .12-    
180711 F52  .12-  .13-    180713 J04  .60-  .24+    180714 H21  .64-  .16-    
180711 F52  .05+  .02+    180713 J04  .22+  .66-    
180711 F52  .20+  .12+    180714 H21  .42+  .29+    

Ephemerides (geocentric):
Date (UTC) HH   RA              Dec         delta   r     elong  mag " sig PA
---- -- -- --  -------------   -----------  ------ ------ -----  --- ---- ---
2018 07 15 11  00 29 30.734   +30 42 19.00  2.5467 2.7868  92.7 20.6  1.0 114
2018 07 15 12  00 29 31.780   +30 42 54.85  2.5463 2.7869  92.8 20.6  1.0 114
2018 07 15 13  00 29 32.824   +30 43 30.69  2.5458 2.7869  92.8 20.6  1.1 114
2018 07 15 14  00 29 33.866   +30 44 06.53  2.5453 2.7869  92.8 20.6  1.1 114
2018 07 15 15  00 29 34.906   +30 44 42.36  2.5449 2.7869  92.9 20.6  1.2 114
2018 07 15 16  00 29 35.944   +30 45 18.18  2.5444 2.7870  92.9 20.6  1.2 114
2018 07 15 17  00 29 36.979   +30 45 54.00  2.5440 2.7870  92.9 20.6  1.2 114
2018 07 15 18  00 29 38.013   +30 46 29.82  2.5435 2.7870  92.9 20.6  1.3 114
2018 07 15 19  00 29 39.045   +30 47 05.63  2.5431 2.7871  93.0 20.6  1.3 114
2018 07 15 20  00 29 40.074   +30 47 41.43  2.5426 2.7871  93.0 20.6  1.4 114
2018 07 15 21  00 29 41.102   +30 48 17.23  2.5421 2.7871  93.0 20.6  1.4 114
2018 07 15 22  00 29 42.127   +30 48 53.03  2.5417 2.7871  93.0 20.6  1.5 114
2018 07 15 23  00 29 43.150   +30 49 28.81  2.5412 2.7872  93.1 20.6  1.5 114
2018 07 16 00  00 29 44.171   +30 50 04.60  2.5408 2.7872  93.1 20.6  1.6 114
2018 07 16 01  00 29 45.191   +30 50 40.38  2.5403 2.7872  93.1 20.6  1.6 114
2018 07 16 02  00 29 46.208   +30 51 16.15  2.5399 2.7873  93.2 20.6  1.7 114
2018 07 16 03  00 29 47.223   +30 51 51.91  2.5394 2.7873  93.2 20.6  1.7 114
2018 07 16 04  00 29 48.235   +30 52 27.68  2.5389 2.7873  93.2 20.6  1.8 114
2018 07 16 05  00 29 49.246   +30 53 03.43  2.5385 2.7873  93.2 20.6  1.8 114
2018 07 16 06  00 29 50.255   +30 53 39.18  2.5380 2.7874  93.3 20.6  1.9 114
2018 07 16 07  00 29 51.262   +30 54 14.93  2.5376 2.7874  93.3 20.6  1.9 114
2018 07 16 08  00 29 52.266   +30 54 50.67  2.5371 2.7874  93.3 20.6  2.0 114
2018 07 16 09  00 29 53.269   +30 55 26.40  2.5367 2.7875  93.4 20.6  2.0 114
2018 07 16 10  00 29 54.269   +30 56 02.13  2.5362 2.7875  93.4 20.6  2.1 114
2018 07 16 11  00 29 55.267   +30 56 37.85  2.5358 2.7875  93.4 20.6  2.2 114
2018 07 16 12  00 29 56.264   +30 57 13.57  2.5353 2.7875  93.4 20.6  2.2 114
2018 07 16 13  00 29 57.258   +30 57 49.28  2.5348 2.7876  93.5 20.6  2.3 114
2018 07 16 14  00 29 58.250   +30 58 24.99  2.5344 2.7876  93.5 20.6  2.3 114
2018 07 16 15  00 29 59.240   +30 59 00.69  2.5339 2.7876  93.5 20.6  2.4 114
2018 07 16 16  00 30 00.227   +30 59 36.38  2.5335 2.7877  93.6 20.6  2.4 114
2018 07 16 17  00 30 01.213   +31 00 12.07  2.5330 2.7877  93.6 20.6  2.5 114
2018 07 16 18  00 30 02.197   +31 00 47.76  2.5326 2.7877  93.6 20.6  2.6 114
2018 07 16 19  00 30 03.178   +31 01 23.43  2.5321 2.7877  93.6 20.6  2.6 113
2018 07 16 20  00 30 04.158   +31 01 59.11  2.5317 2.7878  93.7 20.6  2.7 113
2018 07 16 21  00 30 05.135   +31 02 34.78  2.5312 2.7878  93.7 20.6  2.8 113
2018 07 16 22  00 30 06.110   +31 03 10.44  2.5307 2.7878  93.7 20.6  2.8 113
2018 07 16 23  00 30 07.083   +31 03 46.09  2.5303 2.7879  93.8 20.6  2.9 113
2018 07 17 00  00 30 08.054   +31 04 21.74  2.5298 2.7879  93.8 20.6  3.0 113
2018 07 17 01  00 30 09.023   +31 04 57.39  2.5294 2.7879  93.8 20.6  3.0 113
2018 07 17 02  00 30 09.990   +31 05 33.03  2.5289 2.7879  93.8 20.6  3.1 113
2018 07 17 03  00 30 10.955   +31 06 08.66  2.5285 2.7880  93.9 20.6  3.2 113
2018 07 17 04  00 30 11.917   +31 06 44.29  2.5280 2.7880  93.9 20.6  3.2 113
2018 07 17 05  00 30 12.878   +31 07 19.91  2.5276 2.7880  93.9 20.6  3.3 113
2018 07 17 06  00 30 13.836   +31 07 55.53  2.5271 2.7881  94.0 20.6  3.4 113
2018 07 17 07  00 30 14.792   +31 08 31.14  2.5266 2.7881  94.0 20.6  3.4 113
2018 07 17 08  00 30 15.746   +31 09 06.74  2.5262 2.7881  94.0 20.6  3.5 113
2018 07 17 09  00 30 16.698   +31 09 42.34  2.5257 2.7881  94.0 20.6  3.6 113
2018 07 17 10  00 30 17.648   +31 10 17.93  2.5253 2.7882  94.1 20.6  3.7 113